BLOCK DM-SL DEB, 45041

Orbit data source: Space-Track

BLOCK DM-SL DEB, 45041 is space debris in GEO originally from a launch on Tue, 24 Dec 2019 UTC launched from the Tyuratam Missile And Space Complex (TTMTR). Debris objects in space refer to the collection of defunct objects orbiting the Earth. Examples of debris include non-operational satellites, rocket bodies, and fragments generated from explosions, collisions, or faulty payload assembly.

Not visible in the next 10 days
Identifier
45041, 2019-095C
Orbit
GEO
Country
Flag of CISCIS
Related business
Manufacturer
RKKE
Mission
Spacecraft
Bus & Motor
SOZ, Unknown motor
Mass
56 kg wet, 56 kg dry
Launch date (UTC)
2019-12-24 (6 years ago)
Launch vehicle
Unknown
Launch site
Tyuratam Missile And Space Complex (TTMTR)
Object type
Payload
Rocket body
Debris
Shape & HBR
Cyl, 0.6 m
Radar Cross Section
0.660 m²

Expand to show TLE details & history
Last TLE update: 1 day ago

TLE from 1 day ago
0 BLOCK DM-SL DEB
1 45041U 19095C   25261.15581444 -.00000110  00000-0  00000-0 0  9999
2 45041   4.6926  76.9194 0354071  38.4671 324.2909  1.03012172 21535
Epoch: 2025-09-18T03:44Z
TLE epoch observation values (Epoch: 2025-09-18T03:44:22.367Z)
Latitude
0.00001°
Longitude
23.78861°
Altitude
33,868.819 km
Speed
3.191 km/s
True Right ascension
05h 08m 48s
True Declination
0° 00' 00"
Sunlit
Object was in daylight at epoch
Visualization orbit readout
Latitude
Unknown
Longitude
Unknown
Altitude
Unknown
Speed
Unknown
Apparent Right ascension
Unknown
Apparent Declination
Unknown
Sunlit
N/A
Visualization observer readout
Local Sidereal Time
00:32:43
Azimuth
Unknown
Elevation
Unknown
Doppler factor
Unknown
Orbital elements
Apogee altitude
36,502.9 km
Perigee altitude
33,570.154 km
Semi-major axis
41,414.664 km
Eccentricity
0.03541
Inclination
4.6926°
RAAN
76.9194°
Arg. of periapsis
38.4671°
True anomaly
321.83536°
Mean anomaly
324.2909°
Eccentric anomaly
323.07205°
Mean motion
0.25752 °/min
Orbital period
1,397.95 mins
BSTAR
0
Loading maneuver chart data...
Computing Atmospheric mass density...
Loading historical data...
Loading historical data...
Loading historical data...
Loading historical data...
Loading historical data...
Loading historical data...
Loading historical data...
Other satellites on launch #95 in the year 2019 (2019-12-24 UTC)

Documentation

Showing up to 5 results
|